• Join FlightAware (Why Join?)
  • Login
  • US Flag GB Flag 
19:34 EDT


 

Airport Tracker/Info


-or-


 

Live Flight TrackerFlight Track Log ✈ SWA718 ✈ 30-Apr-2013 ✈ KCRP - KHOU

Flight Track Log - Related Links

Times and Time Zones

All times are in EDT time to prevent confusion due to time zone crossing. See the SWA718 flight status page for this flight to view local times or setup timezone preferences in your user account.

Time Position Orientation Groundspeed Altitude Reporting Facility
EDT Latitude Longitude Course Direction KTS MPH feet Rate Location/Type
15:28 27.7603 -97.4950 111° Southeast 148 170 800  Level Houston Center
15:29 27.7417 -97.4406 111° Southeast 210 242 3,700 2,040 Climbing Houston Center
15:30 27.7767 -97.4242 23° Northeast 240 276 4,700 3,240 Climbing Houston Center
15:30 27.8103 -97.4122 17° North 290 334 7,000 4,320 Climbing Houston Center
15:31 27.8500 -97.3961 20° North 272 313 9,200 4,080 Climbing Houston Center
15:31 27.8953 -97.3817 16° North 294 338 11,600 3,960 Climbing Houston Center
15:32 27.9281 -97.3697 18° North 285 328 13,300 2,220 Climbing Houston Center
15:33 28.0228 -97.3361 17° North 320 368 15,200 2,400 Climbing Houston Center
15:34 28.1064 -97.2750 33° Northeast 359 413 18,300 3,000 Climbing Houston Center
15:35 28.1903 -97.2033 37° Northeast 376 433 21,400 2,160 Climbing Houston Center
15:36 28.2758 -97.1244 39° Northeast 396 456 22,900 720 Climbing Houston Center
15:37 28.3728 -97.0197 44° Northeast 400 460 23,000 480 Climbing Houston Center
15:38 28.4553 -96.9347 42° Northeast 400 460 24,000 1,620 Climbing Houston Center
15:39 28.5600 -96.8669 30° Northeast 450 518 26,400 1,440 Climbing Houston Center
15:40 28.6756 -96.8906 350° North 426 490 27,000 240 Climbing Houston Center
15:41 28.7892 -96.9164 349° North 420 483 27,000  Level Houston Center
15:42 28.9028 -96.9406 349° North 416 479 27,000 -900 Level Houston Center
15:43 29.0297 -96.8736 25° Northeast 418 481 25,200 -1,860 Descending Houston Center
15:44 29.1211 -96.8075 32° Northeast 402 463 23,200 -1,500 Descending Houston Center
15:45 29.1569 -96.6914 71° East 398 458 22,200 -1,080 Descending Houston Center
15:46 29.1844 -96.5722 75° East 394 453 21,000 -1,680 Descending Houston Center
15:47 29.1942 -96.5264 76° East 388 447 19,800 -2,040 Descending Houston Center
15:47 29.2100 -96.4561 76° East 383 441 18,900 -2,100 Descending Houston Center
15:48 29.2397 -96.3225 76° East 367 422 16,400 -2,220 Descending Houston Center
15:49 29.2644 -96.2147 75° East 353 406 14,400 -1,920 Descending Houston Center
15:50 29.2869 -96.1083 76° East 345 397 12,500 -1,140 Descending Houston Center
15:51 29.3322 -96.0061 63° Northeast 316 364 12,000 -780 Descending Houston Center
15:52 29.3883 -95.9458 43° Northeast 309 356 10,900 -1,380 Descending Houston Center
15:53 29.4483 -95.8769 45° Northeast 306 352 9,300 -1,620 Descending Houston Center
15:54 29.5136 -95.7983 46° Northeast 289 333 7,600 -1,560 Descending Houston Center
15:55 29.5311 -95.7147 76° East 276 318 6,200 -900 Descending Houston Center
15:56 29.5256 -95.6289 94° East 273 314 5,800 -840 Descending Houston Center
15:57 29.5200 -95.5431 94° East 254 292 4,500 -1,200 Descending Houston Center
15:59 29.5178 -95.4647 92° East 255 293 3,400 -900 Descending Houston Center
16:00 29.5400 -95.3942 70° East 213 245 2,700 -960 Descending Houston Center
16:01 29.5839 -95.3458 44° Northeast 196 226 1,500 -1,020 Descending Houston Center
16:02 29.6164 -95.3106 43° Northeast 149 171 700 -660 Descending Houston Center
16:03 29.6464 -95.2772 44° Northeast 167 192 100 -540 Descending Houston Center
16:05 29.6454 -95.2789 115° Southeast  Level Estimated